YUZGU 10 (RS4S)

Last updated on Sat Jan 28 2023 00:02:07 GMT+0000 (Coordinated Universal Time)

1 53321U 98067TZ 23027.76654727 .09832796 12228-4 11772-2 0 9995 2 53321 51.6166 282.8617 0006462 242.6129 229.0481 16.35602540 29828

Satellite not in orbit